RH
40 58 76 83 83 83 88 88 93 98 97 99 96 98 95 90 88 90 94 89 92 84 72 77 72 72 71 66 75 84 79 75 72 73 79 73 67 71 74 76 79 81 79 79 78 76 74 69 61 55 51 55 69 72 64 58 56 60 64 69 73 76 75 72 69 66 67 69 71 71 74 76 76 77 76 75 76 78 77 77 78 77 77 72 65 64 68 70 70 73 72 71 72 73 75 75 75
53 70 81 87 87 88 91 90 96 100 98 99 95 98 96 91 88 89 92 86 90 82 72 78 76 74 68 63 66 71 84 91 74 71 84 73 71 76 73 76 78 79 78 78 78 75 71 62 57 53 51 64 72 65 60 58 60 66 69 73 78 76 70 66 64 65 67 69 70 71 74 74 74 75 77 77 77 79 76 75 78 76 76 75 71 72 73 70 71 76 74 75 75 74 77 77 76
65 78 85 88 87 89 91 92 98 99 99 98 96 98 94 93 92 90 88 84 85 80 74 74 78 77 66 70 71 76 93 99 79 72 89 77 71 79 75 78 78 78 77 77 76 71 66 58 57 52 54 68 66 60 61 64 67 68 67 70 74 73 69 66 64 65 68 70 71 74 74 73 74 76 77 77 78 80 77 74 78 78 76 76 77 76 73 71 73 77 75 75 76 75 76 75 75
72 80 83 87 86 91 95 98 99 99 98 94 95 95 92 91 89 89 84 80 78 74 74 72 78 72 66 81 80 84 94 99 92 75 87 80 67 76 76 78 77 76 76 75 72 65 60 58 56 50 57 69 67 67 68 68 68 67 68 71 74 74 72 69 68 68 71 73 75 76 75 74 75 76 77 79 80 81 80 77 79 82 80 78 77 78 75 73 76 77 76 75 75 75 75 74 75
74 81 85 92 93 94 96 100 98 98 97 92 94 92 90 88 86 88 82 76 71 70 74 69 74 71 69 81 79 89 95 97 97 73 77 80 68 73 75 76 75 74 74 71 65 59 58 57 54 54 64 71 71 72 70 69 68 69 72 74 77 77 73 72 73 73 74 76 76 77 75 75 75 75 76 80 81 80 81 79 80 81 80 79 78 79 76 75 77 76 74 75 75 75 76 75 76
75 84 91 96 94 92 95 99 97 97 95 91 95 94 89 87 88 87 80 73 67 66 68 66 71 75 77 84 85 91 91 86 86 74 73 77 70 71 74 74 73 72 71 66 59 55 53 52 57 65 72 73 70 69 68 69 71 73 75 76 78 76 72 72 75 76 77 76 76 75 74 76 75 75 75 78 79 78 78 78 81 79 77 79 78 75 74 76 76 73 72 74 75 76 76 76 77
79 87 93 96 94 93 97 100 97 98 94 90 95 94 90 90 89 86 82 71 66 64 62 68 67 74 81 82 88 89 85 79 75 74 71 71 71 71 72 71 71 70 66 60 55 50 46 53 67 73 75 74 69 67 68 68 70 71 73 75 75 73 71 73 75 76 77 76 76 76 75 77 78 77 77 77 77 76 75 78 81 76 72 73 73 70 71 75 73 70 71 71 72 75 76 76 75
84 86 89 94 97 96 98 98 97 98 93 90 94 93 91 90 85 86 87 74 68 65 63 68 62 74 85 81 91 90 85 79 72 73 69 70 73 70 67 66 66 64 61 56 48 41 46 64 74 75 74 72 68 68 69 66 67 67 68 70 71 72 71 72 75 75 76 78 79 77 76 77 77 77 78 78 77 74 73 78 81 74 68 66 67 67 68 72 71 69 70 69 71 74 74 73 73
81 86 90 94 98 98 97 96 96 95 91 91 94 92 90 85 81 85 88 77 68 65 64 65 62 78 90 89 96 91 86 81 72 73 72 74 72 64 62 60 57 57 56 47 37 33 52 74 74 72 70 67 69 70 68 65 66 67 68 71 73 75 74 74 77 79 79 79 79 77 77 76 76 77 78 78 77 75 74 76 78 76 71 66 67 66 68 73 72 71 71 71 72 73 73 72 72
82 89 90 96 98 99 97 95 97 95 92 92 93 92 89 84 80 81 82 77 68 68 68 67 71 85 91 93 97 90 89 82 76 81 80 76 67 61 60 57 52 50 45 36 29 32 58 78 72 70 67 66 69 69 68 68 71 72 70 73 77 78 79 80 80 80 79 79 78 77 78 77 78 78 78 78 77 75 75 74 76 78 75 70 71 70 70 74 74 73 73 72 73 73 74 74 73
88 89 86 97 99 98 98 96 96 96 94 92 94 93 90 83 78 79 78 74 69 73 73 72 81 89 90 95 98 91 88 82 79 84 81 73 64 59 56 54 51 43 33 29 29 37 63 77 71 70 68 68 68 68 70 71 76 76 71 73 78 80 80 81 79 77 78 78 77 76 77 78 79 78 77 78 77 76 75 74 74 78 77 73 74 74 72 75 76 75 74 73 73 73 74 75 74
92 95 91 99 97 97 96 95 94 96 96 92 94 94 89 81 79 81 78 73 69 72 69 71 81 84 89 98 97 90 87 86 84 81 77 71 62 57 52 52 48 37 29 28 32 42 63 74 71 70 70 71 72 72 71 72 79 77 73 74 78 80 79 79 77 75 77 77 76 76 77 78 79 78 77 78 77 77 75 74 74 76 78 77 77 76 76 78 77 76 75 73 72 72 72 73 73
89 96 96 98 94 97 96 95 94 95 97 95 95 93 88 83 84 84 76 72 69 71 70 70 76 78 88 98 94 91 87 88 88 83 81 74 60 55 52 49 43 33 28 29 38 49 63 72 72 72 73 74 74 73 73 75 78 77 76 75 78 79 79 79 74 74 76 75 76 76 77 78 78 77 77 77 76 76 76 75 76 75 77 79 77 75 76 78 78 76 76 74 74 75 73 74 75
82 87 95 98 93 95 95 97 95 94 99 96 96 93 89 88 88 84 78 80 75 71 71 70 71 77 90 96 94 93 90 92 92 89 91 77 57 55 55 47 37 29 28 34 45 52 60 71 73 75 74 73 74 73 75 79 77 75 76 76 77 78 77 76 73 74 75 73 75 77 78 77 78 78 77 77 77 78 76 75 76 75 75 75 73 70 70 74 75 74 74 73 74 74 73 75 78
77 82 94 100 96 94 91 96 93 94 99 95 96 93 90 88 85 83 80 81 76 66 67 68 64 73 85 88 93 94 93 97 94 94 96 78 56 57 56 43 32 26 31 41 51 54 59 68 73 74 72 72 74 73 77 80 76 73 75 75 74 74 74 72 71 74 73 73 76 78 79 78 80 80 77 76 77 77 74 72 72 71 72 72 71 68 67 69 69 69 69 68 68 67 67 73 78
76 80 96 101 97 96 92 95 93 94 97 93 95 91 90 91 82 83 81 77 73 64 63 64 57 66 76 79 87 87 87 94 95 97 92 73 60 60 55 39 29 29 39 49 54 55 59 66 70 71 71 72 74 75 77 77 75 74 75 74 73 72 71 71 73 76 75 75 79 80 79 78 80 80 78 78 76 75 72 70 70 69 70 70 69 66 65 66 66 64 62 61 61 63 67 75 81
76 83 96 99 96 96 93 92 90 91 94 94 96 89 91 94 87 85 81 75 71 63 59 60 59 66 74 78 80 76 78 86 93 95 86 72 64 61 53 37 29 35 48 55 55 57 62 66 67 69 70 72 75 75 76 76 75 75 76 75 73 72 73 75 77 78 76 75 77 78 78 74 75 77 76 76 76 74 73 72 70 69 67 64 61 59 59 61 60 56 53 55 61 68 76 81 84
78 92 94 95 96 89 83 81 80 85 91 95 95 90 90 92 91 85 78 77 69 61 58 59 63 67 76 80 80 80 82 87 90 90 87 77 63 58 48 33 30 38 50 56 57 60 63 65 68 69 69 72 75 75 76 78 76 74 77 77 73 74 77 78 76 77 73 70 71 71 71 70 71 72 71 70 73 74 73 72 69 66 62 58 54 53 54 55 53 52 53 58 67 75 82 85 86
79 92 93 94 90 76 71 73 76 83 89 94 94 87 84 85 87 81 81 84 68 61 62 59 63 70 78 82 82 84 85 87 88 88 90 79 64 56 41 31 31 36 47 54 59 66 66 65 68 68 69 72 73 74 77 76 75 75 77 76 74 74 77 77 75 73 67 64 67 67 66 67 70 71 70 68 69 73 74 72 68 63 60 56 53 54 55 56 58 59 62 66 72 78 83 86 87
79 84 94 92 77 68 69 73 76 80 87 93 94 86 80 82 85 80 82 84 69 62 62 60 66 74 79 83 83 84 86 87 85 88 90 80 68 51 33 29 30 34 47 55 61 71 70 66 69 69 68 69 69 70 72 70 72 74 75 76 75 74 74 73 72 69 65 62 65 67 65 66 69 70 70 66 65 69 72 72 67 62 60 58 57 57 59 62 65 66 68 70 72 75 77 78 78
78 79 85 76 64 69 72 73 77 81 85 90 90 86 85 87 87 82 80 81 75 64 58 60 68 74 78 83 84 85 86 84 83 87 87 79 65 45 33 29 27 37 52 59 65 70 70 68 69 70 67 67 66 64 64 65 68 71 72 74 74 73 73 72 70 69 67 64 64 67 67 66 67 68 67 64 61 63 64 64 60 57 56 56 56 55 59 67 70 71 73 73 74 74 75 72 70
72 73 67 59 60 72 74 73 80 82 83 86 88 87 87 87 85 83 79 76 73 62 57 61 66 70 75 78 81 84 84 80 84 86 80 72 59 49 48 40 36 48 57 62 68 68 70 71 68 68 67 66 65 63 63 63 66 68 69 71 71 70 71 71 71 70 68 65 65 66 66 66 63 62 62 59 57 56 56 54 52 53 54 55 58 60 64 70 72 74 75 76 76 75 75 70 68
68 69 56 53 59 69 74 75 81 83 83 85 86 84 83 83 83 85 81 70 65 60 57 62 64 66 70 74 79 83 82 82 84 81 73 67 61 59 58 51 50 59 63 65 68 68 71 71 66 65 66 67 66 66 65 63 65 66 67 70 70 68 67 69 69 67 65 63 62 63 63 62 59 56 54 54 55 56 57 58 59 60 62 64 68 70 70 72 72 72 73 74 73 71 70 67 66
61 63 52 49 57 67 71 75 80 81 81 81 79 80 82 83 83 86 81 68 61 59 58 64 65 65 70 74 79 82 82 83 82 76 71 66 64 64 62 60 61 63 66 68 69 69 69 69 66 64 66 67 66 66 66 66 67 67 68 71 72 69 66 67 66 64 61 59 59 62 63 61 59 57 56 57 59 61 64 67 70 69 70 71 74 75 74 73 72 70 71 73 71 69 70 69 68
54 53 48 46 56 67 69 73 78 78 79 77 75 80 81 78 79 84 81 66 60 59 59 65 68 68 72 74 78 80 80 81 78 74 70 66 66 66 65 66 67 67 67 68 69 70 68 67 66 65 66 66 64 63 64 66 68 69 69 71 73 71 67 66 66 64 61 62 62 62 64 63 62 64 64 64 66 68 68 70 72 72 72 75 79 79 76 75 72 70 71 70 71 71 73 74 72
50 45 42 47 59 67 68 72 75 78 80 76 76 83 81 74 78 86 83 68 59 59 61 66 70 71 73 75 76 77 78 78 74 71 68 66 68 68 66 67 68 69 68 66 68 70 68 65 63 64 65 65 63 61 62 66 68 70 73 75 76 74 70 68 68 67 67 67 64 62 65 67 67 67 66 65 68 71 71 71 71 71 73 76 80 80 79 78 76 75 75 73 73 75 75 76 75
43 40 40 49 59 64 66 71 75 78 78 75 80 87 82 77 83 89 87 79 65 59 63 67 69 70 72 73 72 71 72 71 69 68 66 67 69 69 68 69 69 70 69 66 67 68 66 63 63 63 64 64 62 60 64 69 71 74 78 80 79 77 75 74 73 71 70 69 67 66 69 72 72 70 70 70 71 72 74 74 72 71 72 74 77 79 79 79 78 78 78 77 76 77 77 76 76
38 41 47 55 61 71 74 74 75 74 74 76 80 86 84 82 89 92 90 86 73 60 61 65 66 67 68 68 67 66 65 65 65 65 66 67 67 69 70 69 70 73 69 63 66 67 63 64 65 64 65 64 61 62 68 73 74 75 77 79 79 79 78 78 77 74 71 71 72 75 75 75 73 72 73 74 73 73 74 73 71 68 70 73 76 77 77 77 78 79 77 76 75 75 75 75 76
39 47 59 65 68 80 84 80 72 69 77 76 74 82 88 90 93 91 83 79 75 66 58 59 63 62 63 66 65 65 64 62 62 62 64 64 64 68 71 70 70 72 68 62 65 65 64 67 69 67 68 67 63 65 71 74 74 74 75 76 79 81 79 77 77 76 73 73 75 78 79 76 73 74 74 75 75 74 75 75 73 68 68 72 74 75 76 77 77 78 76 75 74 74 73 73 73
45 51 61 72 80 84 82 81 73 71 79 70 68 86 97 96 93 89 80 71 72 71 63 58 59 59 61 64 64 63 62 59 58 59 62 63 63 67 71 73 71 70 67 65 66 66 68 71 71 69 69 69 67 69 72 74 76 75 74 77 81 82 80 79 77 75 73 74 76 78 79 77 74 76 76 75 75 74 75 76 74 71 70 70 70 73 75 77 77 77 75 74 72 72 72 70 69
49 55 59 73 87 83 72 75 75 78 81 68 71 92 99 94 92 92 85 74 70 73 73 65 57 58 61 61 62 61 59 58 57 58 61 62 63 66 71 75 74 70 66 66 66 68 72 71 69 71 72 71 69 72 73 75 78 74 73 79 84 84 83 80 74 70 71 73 76 77 77 78 76 75 76 77 76 76 76 74 71 70 70 71 72 74 75 75 76 76 75 73 72 70 70 70 69
46 59 66 73 79 76 68 68 71 78 79 72 79 93 97 92 91 93 87 79 76 76 77 72 59 56 59 59 60 59 57 58 57 57 60 61 62 65 71 74 75 71 66 68 67 66 72 71 69 73 75 74 73 75 74 75 80 75 76 83 85 85 83 77 67 65 69 70 74 75 74 77 78 75 76 77 76 75 74 71 68 67 68 72 76 76 74 75 75 73 72 71 72 71 69 69 69
35 47 65 72 73 76 76 69 65 69 76 78 83 93 98 93 90 93 88 81 81 80 78 72 61 54 57 58 57 56 56 57 57 59 60 61 63 64 68 71 73 71 67 69 67 63 68 71 72 74 76 77 78 78 75 78 83 80 82 87 85 85 81 71 63 62 66 66 70 72 71 74 74 71 72 74 74 72 71 68 67 68 70 72 76 76 73 74 73 70 69 70 71 70 69 68 68
27 32 53 65 67 77 83 76 67 66 74 79 80 89 98 94 91 93 86 75 78 83 78 71 62 54 55 56 55 54 54 55 57 59 59 61 63 62 64 66 69 70 67 68 65 61 64 67 70 73 74 80 80 77 78 85 88 84 86 88 84 81 77 73 66 62 65 67 67 69 69 70 71 69 70 72 75 76 73 68 68 69 70 71 73 74 73 72 71 69 69 71 71 69 67 67 67
25 28 45 62 68 75 81 80 72 68 73 77 78 89 99 96 94 94 86 75 77 83 78 73 66 55 53 53 52 52 51 53 55 56 58 59 61 61 61 62 64 68 67 65 64 65 66 62 65 68 68 76 78 76 83 90 88 86 87 87 84 81 80 82 75 66 66 66 66 68 68 70 73 74 73 76 80 79 74 68 67 68 71 72 70 69 70 70 70 69 70 71 71 69 67 67 67
23 23 35 59 72 69 71 75 70 66 74 78 78 88 98 97 96 97 92 80 79 82 76 73 67 55 53 52 51 51 50 51 52 53 57 58 58 60 59 59 62 65 65 64 66 71 69 62 66 69 66 72 77 79 86 90 84 83 87 87 85 84 83 84 78 72 69 65 64 68 70 71 73 75 77 81 82 77 71 69 68 68 71 72 68 66 65 67 69 68 70 70 69 68 67 67 66
17 16 21 46 65 64 67 75 68 59 71 81 77 85 96 96 96 97 93 85 82 83 77 72 66 57 53 51 49 51 49 48 50 50 54 55 55 58 57 58 62 60 58 62 66 72 69 62 65 69 72 76 78 80 85 87 81 80 85 85 82 81 81 82 78 75 73 66 64 66 68 68 70 77 80 80 79 74 68 68 68 66 67 68 69 70 64 62 68 70 71 70 69 69 68 68 65
14 15 13 31 54 62 66 72 66 55 68 83 79 87 95 92 95 97 94 89 84 83 79 73 64 55 53 50 46 48 48 46 48 48 48 50 53 55 54 57 61 55 54 61 66 71 67 61 62 67 74 77 78 81 82 82 79 78 83 81 76 76 78 78 74 72 71 65 64 68 68 65 66 75 79 76 75 73 69 67 66 64 64 65 70 73 66 61 65 71 72 69 70 70 68 67 64
14 12 16 39 56 65 70 66 60 54 68 85 82 88 95 90 93 97 94 90 86 84 81 76 69 58 51 48 45 45 45 45 46 46 45 48 51 52 52 56 58 51 51 61 67 68 65 62 61 64 71 74 77 80 77 78 77 75 81 80 75 75 76 78 76 72 68 63 64 68 67 63 64 69 72 75 74 72 71 68 67 66 65 68 72 71 67 65 64 66 69 71 70 69 67 67 66
13 9 26 57 61 67 77 68 58 54 65 79 81 88 95 92 92 95 94 89 88 87 79 75 78 71 55 46 45 43 43 45 45 45 45 47 50 50 51 55 54 49 51 61 67 66 62 61 60 61 65 68 71 71 70 75 74 72 78 80 76 75 75 80 81 76 67 62 63 65 65 64 65 66 66 70 72 69 68 69 70 69 68 72 73 68 66 65 65 66 69 71 70 67 67 67 67
12 8 30 60 58 59 69 64 57 58 66 69 74 91 97 93 95 96 96 91 88 89 79 71 76 78 65 52 47 43 42 45 43 42 44 46 48 48 50 53 52 49 50 57 62 61 58 60 62 61 60 62 62 60 65 74 74 72 77 81 80 77 77 82 83 78 70 64 64 64 64 65 65 65 65 66 69 69 67 67 71 70 68 70 69 65 64 63 65 70 72 71 69 67 66 66 67
10 9 30 53 54 55 60 57 57 72 85 71 66 91 98 90 91 94 96 96 92 91 85 76 74 76 71 60 52 46 43 44 41 41 44 46 46 48 49 50 51 51 51 54 57 58 58 61 65 64 59 57 54 52 60 72 75 73 74 78 79 76 76 80 78 74 69 63 62 63 64 66 65 65 67 67 67 67 65 66 71 69 66 66 66 63 63 64 65 69 71 71 71 68 67 66 66
11 11 28 46 49 53 55 54 61 78 87 69 57 80 96 94 91 89 93 96 94 93 90 85 79 73 68 63 59 53 47 42 41 42 44 46 46 47 49 49 51 52 52 54 56 57 59 63 66 65 62 57 51 49 56 67 72 73 71 71 72 73 72 75 75 73 73 69 65 63 62 65 66 64 67 70 69 66 64 66 68 67 65 66 67 65 64 68 69 67 69 72 72 70 69 68 66
13 11 27 46 46 49 51 51 59 62 66 66 55 64 92 99 87 82 88 95 96 94 93 90 84 72 63 61 61 59 52 42 40 43 44 45 45 45 47 49 50 52 52 54 56 57 61 63 62 59 60 57 51 51 54 61 67 69 70 69 70 72 69 70 74 75 78 78 71 66 66 67 65 65 68 69 67 66 64 64 65 65 64 64 66 67 66 69 70 69 71 73 73 71 69 68 65
12 10 24 40 41 44 46 47 54 52 62 81 65 56 86 96 83 82 88 94 97 94 93 93 88 77 67 63 65 68 60 45 40 43 43 44 45 45 45 48 50 51 52 54 54 56 60 62 58 53 53 53 52 52 53 58 65 68 71 72 71 72 69 68 73 77 79 78 73 72 75 74 67 64 68 68 67 67 63 61 64 65 65 64 66 69 70 71 71 68 68 71 74 72 69 68 66
10 8 13 29 40 42 41 45 49 50 70 88 66 53 80 92 85 90 94 94 93 89 88 91 89 82 73 66 68 75 71 54 42 42 44 43 44 45 45 47 50 51 51 54 54 55 59 62 58 50 47 47 47 51 52 55 65 70 72 73 71 71 69 67 72 78 79 76 73 74 78 79 74 67 67 69 67 65 63 61 63 66 65 64 68 72 73 72 72 71 67 67 70 70 68 69 67
10 10 9 19 38 43 47 55 50 53 73 77 58 50 69 89 88 87 90 85 78 79 83 88 89 84 75 66 63 69 72 62 48 43 44 44 43 45 45 46 50 51 51 54 54 53 58 64 59 50 45 44 43 46 48 50 61 70 72 71 70 70 69 68 70 75 79 77 73 73 77 80 77 71 70 72 68 65 65 63 62 65 66 64 67 74 74 71 74 74 66 62 65 66 68 71 68
8 13 14 18 35 49 60 62 49 55 67 57 50 45 52 79 85 75 75 69 65 71 74 81 87 85 80 74 67 63 66 65 54 46 45 45 45 46 47 47 49 51 52 55 55 53 56 60 58 54 49 44 42 42 40 41 50 61 68 69 67 68 70 67 66 69 76 76 70 72 78 79 78 77 74 72 69 67 65 62 61 62 65 65 66 72 75 73 74 69 59 57 58 59 63 66 65
11 17 25 25 36 53 64 60 48 52 53 40 42 46 53 77 78 64 63 62 62 65 65 71 80 83 83 79 73 67 66 65 59 52 47 45 46 47 49 50 50 52 53 54 55 53 53 53 54 58 54 42 38 40 37 34 38 45 55 62 64 66 70 69 65 67 73 73 69 72 77 77 76 76 73 67 64 65 64 62 62 60 63 67 68 71 75 73 71 63 54 55 57 56 59 57 57
14 19 29 33 38 46 49 48 44 42 42 38 39 46 63 79 73 60 56 56 59 60 61 66 72 78 80 79 76 71 67 63 60 57 50 44 47 48 49 51 50 52 52 53 55 54 54 54 53 56 55 44 35 36 37 34 33 35 40 49 56 59 63 67 68 67 71 72 70 72 74 73 74 72 68 65 63 65 63 62 64 63 63 68 71 73 75 72 68 61 56 58 59 57 57 55 54
18 17 25 34 38 39 37 43 46 37 38 48 49 53 69 80 76 66 54 48 54 59 60 64 70 74 77 79 76 72 71 66 62 62 54 47 48 48 48 51 50 52 52 53 55 55 55 56 56 56 55 50 40 34 35 33 32 33 34 40 46 48 51 62 70 70 70 70 69 70 72 71 70 65 64 68 66 65 65 62 62 65 66 67 70 72 73 73 71 68 64 61 59 56 54 56 56
20 17 22 27 30 36 38 41 41 34 44 62 64 68 76 76 72 68 59 50 52 57 60 65 71 74 77 80 77 73 74 72 73 70 61 60 61 54 52 52 51 51 52 54 56 56 57 57 58 58 57 56 51 40 33 32 32 33 33 37 40 41 45 57 69 74 72 68 66 67 69 69 66 59 60 68 68 63 65 64 57 60 66 65 66 71 73 75 74 74 73 64 60 56 52 54 56
23 18 24 25 23 30 36 33 27 35 61 73 71 77 78 70 67 68 68 61 56 59 62 65 70 72 75 78 77 75 75 79 84 75 68 80 81 66 58 54 52 52 51 53 56 56 58 58 58 59 58 58 59 52 41 32 32 34 35 37 40 41 46 54 62 68 70 69 69 68 66 64 64 61 58 62 66 63 64 67 60 56 60 61 64 68 70 72 73 74 75 68 64 61 57 57 57
21 18 21 21 18 23 35 37 29 45 78 81 76 83 82 77 77 74 74 70 65 68 68 67 69 71 75 76 77 80 81 89 94 85 84 91 82 68 62 57 52 53 53 54 56 56 58 59 59 59 59 59 60 61 53 39 32 35 37 38 40 43 46 50 52 55 61 67 70 72 69 63 60 62 63 63 67 66 62 68 68 60 56 57 60 63 63 66 68 70 72 69 67 65 63 61 60
17 18 16 19 25 28 33 34 30 53 86 89 83 82 79 82 82 76 78 80 76 73 67 66 69 73 80 84 85 89 91 97 99 95 93 87 75 67 63 59 57 57 56 55 55 57 57 59 61 60 60 60 60 62 63 52 38 35 39 40 42 44 46 49 49 50 57 64 66 67 68 62 56 60 67 69 71 70 64 65 68 64 56 52 55 58 60 62 64 67 69 67 67 67 65 62 61
15 18 16 19 31 35 30 27 33 61 89 92 87 84 84 91 88 83 88 91 88 81 69 69 77 83 89 91 91 93 94 97 97 91 85 80 79 76 66 61 61 60 60 59 57 58 57 58 62 62 62 63 64 65 68 64 49 40 42 43 42 43 44 46 47 48 56 63 64 63 63 62 59 62 70 74 75 77 72 67 67 66 59 52 51 53 56 58 60 63 66 65 65 67 66 66 65
19 22 20 17 21 25 23 22 30 56 83 90 88 88 89 89 86 87 90 88 86 80 71 74 82 84 86 87 89 90 90 94 92 85 82 85 88 84 74 67 61 60 65 65 62 61 61 61 62 64 67 67 68 70 72 74 69 64 63 61 57 55 52 50 49 48 52 58 62 61 62 64 67 70 76 79 79 79 78 76 73 68 60 54 51 50 51 54 54 57 61 62 64 65 65 67 67
18 19 21 19 20 24 27 26 28 46 68 76 80 91 92 82 79 81 80 78 76 69 68 75 78 79 81 81 82 84 86 93 95 89 87 92 92 87 81 74 67 68 72 71 69 67 65 65 67 72 74 74 78 85 86 87 84 79 77 74 70 67 63 61 60 56 53 55 58 61 64 67 68 71 77 80 79 78 80 81 77 71 64 56 51 49 50 51 49 50 53 57 62 64 64 63 63
Wind_Speed
8 10 8 7 4 3 3 2 1 1 0 1 1 1 2 1 1 2 2 3 3 7 14 7 12 12 6 10 13 14 12 5 3 3 6 14 28 28 25 25 22 22 23 22 21 20 19 18 17 16 15 13 12 11 12 13 12 12 12 13 13 13 13 13 13 13 13 14 14 13 13 13 13 13 13 13 14 13 14 15 16 17 17 16 16 16 16 16 16 15 15 16 17 18 18 18 19
11 10 8 6 3 4 3 2 1 1 0 1 1 1 3 2 0 1 3 4 2 3 16 12 12 11 13 20 18 16 11 5 7 13 19 27 32 27 26 25 23 23 23 22 22 21 19 18 17 16 14 13 12 12 12 12 12 12 12 13 13 12 12 13 14 14 14 15 14 14 14 13 13 13 13 13 13 14 13 14 15 16 17 17 16 16 16 16 16 16 16 17 18 18 18 18 19
12 9 7 5 4 4 2 1 1 1 1 1 1 1 4 3 0 1 4 1 5 4 15 18 11 8 17 16 11 11 6 9 21 28 28 31 32 28 27 24 24 24 23 23 22 21 19 19 17 15 13 13 13 12 12 12 12 12 12 12 12 13 13 15 15 15 14 15 15 14 14 14 13 13 13 13 13 14 14 15 15 16 17 18 16 16 16 17 17 16 17 18 18 18 19 18 18
11 7 5 4 3 2 1 0 0 1 1 2 2 2 4 4 3 2 3 4 11 12 13 16 7 5 17 14 11 12 8 15 25 33 31 30 31 29 27 25 25 23 23 23 22 21 19 18 16 14 14 13 13 12 12 12 12 12 12 13 12 13 14 15 15 15 15 15 15 14 14 14 14 13 13 13 13 14 15 15 16 16 18 18 17 17 17 17 18 17 18 19 18 18 19 18 19
9 5 3 4 2 1 1 0 1 1 0 1 2 2 2 5 5 3 3 3 11 11 6 10 8 10 18 12 8 11 14 20 23 32 34 30 30 29 28 26 25 24 24 23 22 21 19 17 15 15 15 14 13 12 12 12 12 12 12 13 13 13 14 14 15 15 15 15 15 14 14 13 13 13 13 13 13 14 15 15 16 16 17 18 17 18 18 17 18 19 19 19 19 18 19 19 19
8 5 2 1 1 1 0 2 0 1 0 1 1 1 3 4 3 2 3 3 8 9 9 12 16 16 16 13 12 14 20 24 25 31 34 32 30 28 28 26 25 24 24 23 22 20 19 17 16 15 15 14 13 12 12 12 11 12 12 13 13 14 14 14 15 15 15 15 15 14 14 13 13 13 13 13 13 14 15 15 16 16 17 17 18 19 18 18 18 19 19 19 19 18 19 19 19
7 5 2 2 3 2 0 1 1 1 1 0 1 3 5 5 5 3 1 4 10 12 16 19 24 22 12 13 16 13 16 24 30 31 33 33 30 28 27 26 25 25 24 23 21 19 18 17 16 15 15 13 12 12 11 11 11 11 13 13 13 14 14 15 15 15 15 15 15 14 13 13 13 14 14 13 14 15 15 16 16 17 17 17 19 19 19 18 19 19 19 20 20 19 19 20 19
7 3 1 1 1 2 1 2 2 2 1 2 2 5 7 9 11 4 4 2 7 12 20 20 26 24 8 12 15 10 16 24 32 32 33 32 29 28 26 27 27 26 24 22 20 19 18 17 16 15 15 13 12 12 11 11 12 13 13 13 14 14 15 15 15 16 16 15 15 14 13 13 13 14 14 14 15 15 15 16 17 17 17 18 19 20 20 19 19 20 20 20 21 20 20 20 19
6 1 1 1 0 1 1 3 2 2 2 4 3 6 11 14 14 7 3 1 7 16 20 15 22 23 12 19 19 14 19 25 31 32 32 31 30 29 27 28 27 27 24 21 20 19 17 16 16 15 14 13 12 12 11 12 13 14 14 13 14 15 16 16 16 16 16 15 14 14 14 14 14 14 15 15 16 16 16 17 17 18 18 18 20 20 20 20 20 20 20 21 21 21 21 20 19
5 2 1 1 1 2 2 2 1 1 2 5 4 5 9 14 13 4 1 3 11 17 18 18 21 24 20 20 18 18 24 29 32 31 31 30 30 29 28 27 26 26 24 21 20 18 17 16 15 15 14 13 13 12 12 13 14 14 14 14 14 14 15 15 15 15 15 15 15 14 14 15 14 15 15 16 16 16 17 17 18 18 18 19 20 20 20 20 20 20 21 22 21 21 20 20 19
4 2 1 1 1 2 1 2 1 2 3 5 3 3 7 12 8 4 3 7 16 20 23 24 20 26 25 17 18 23 29 31 32 32 32 31 30 29 29 27 25 24 23 21 19 18 17 16 15 15 14 14 13 12 13 14 14 15 15 15 14 14 15 16 16 15 15 15 15 15 15 15 15 15 16 16 17 17 17 18 18 19 18 19 20 21 20 20 19 20 21 21 21 20 19 19 18
2 1 2 0 1 2 2 2 0 4 3 5 1 1 9 10 9 6 3 9 21 22 19 17 17 25 20 13 21 27 29 30 31 33 31 30 29 29 28 26 24 22 21 20 18 18 17 17 16 15 15 13 13 12 13 14 14 15 15 15 15 14 15 16 16 15 16 15 15 15 15 15 16 16 16 16 17 17 17 18 18 19 19 19 20 20 19 19 19 20 21 21 21 19 19 18 18
5 2 2 0 1 2 2 2 1 5 3 4 2 4 10 7 9 7 6 13 16 13 12 16 25 26 16 15 26 29 28 28 29 31 30 29 29 29 28 25 24 22 20 18 17 17 17 18 17 16 14 13 13 13 14 14 14 14 14 14 14 14 15 16 16 16 16 15 15 15 15 16 16 16 17 17 18 18 17 17 18 18 19 18 19 19 18 18 19 20 20 20 20 18 17 17 16
7 3 3 0 1 2 1 0 1 4 3 4 4 8 10 5 7 5 6 10 8 12 16 23 31 26 19 20 24 29 29 28 29 31 30 28 29 29 27 25 23 21 19 17 17 17 17 18 17 16 15 14 13 13 13 13 14 14 14 14 14 14 15 15 16 16 16 16 16 16 16 16 16 17 17 17 18 18 18 18 18 19 19 19 19 18 18 18 19 20 19 19 18 17 16 15 15
9 4 3 0 1 1 0 1 0 2 3 5 6 9 10 7 10 7 6 8 10 20 21 24 25 17 19 19 20 32 32 30 31 31 29 27 28 28 26 24 22 21 18 17 16 16 16 17 16 16 15 14 14 14 13 14 14 13 14 14 14 15 15 16 16 17 17 16 16 16 16 16 17 17 17 18 18 18 18 19 19 19 19 19 18 18 18 18 19 19 18 17 16 17 16 15 15
9 4 2 0 1 1 1 2 1 2 4 5 9 15 11 6 11 8 7 10 14 20 21 21 12 9 23 24 26 36 34 33 32 31 29 27 28 28 26 23 22 20 18 17 16 15 16 16 16 15 14 14 13 14 14 14 14 14 14 14 14 15 16 17 17 18 17 16 16 16 16 17 17 17 17 18 18 18 19 19 19 19 19 19 18 18 19 19 19 18 17 17 16 17 16 15 15
8 3 1 1 2 1 2 3 4 3 5 6 8 14 10 5 8 6 9 13 14 19 20 17 13 20 28 27 32 36 34 34 32 31 29 28 29 28 26 24 22 20 18 17 16 15 15 15 15 15 14 14 14 15 15 15 14 15 15 15 15 16 17 17 17 18 17 16 16 16 16 17 18 18 18 18 18 19 19 19 19 19 19 19 19 19 20 20 20 19 18 19 18 18 16 15 15
7 2 0 2 2 2 3 4 5 5 6 9 9 11 11 9 8 8 12 11 15 22 20 21 22 25 26 30 36 34 34 35 33 33 31 31 30 29 27 25 23 21 19 17 15 15 15 15 15 14 14 14 14 15 15 15 15 16 16 16 15 16 16 17 17 17 17 17 16 17 17 18 18 18 18 18 18 19 19 19 19 19 19 20 20 21 22 22 21 20 20 20 19 18 16 15 14
6 2 1 2 3 2 5 8 9 9 10 11 10 13 15 13 11 13 11 5 14 21 19 26 28 27 31 35 35 34 35 34 34 34 33 32 30 29 29 26 24 21 20 18 16 15 15 15 14 14 14 14 14 14 15 14 15 16 16 16 16 16 16 17 17 17 17 18 17 18 18 19 19 19 19 19 19 19 19 19 19 19 20 20 21 22 23 23 22 21 21 19 18 16 15 13 12
6 3 1 4 3 2 8 12 13 14 16 14 11 14 16 16 14 13 13 9 12 16 18 26 30 33 37 36 36 37 36 34 35 34 33 31 28 29 29 28 25 21 19 18 17 16 15 14 13 14 13 13 13 14 14 15 15 16 16 16 17 17 17 17 17 17 17 17 18 18 18 19 19 19 19 20 20 20 20 20 20 20 20 20 22 23 23 23 22 21 20 18 17 16 14 13 12
5 5 3 4 5 4 9 13 15 19 19 15 14 14 13 15 14 13 17 12 8 14 23 30 34 39 40 39 39 36 35 36 35 34 32 29 27 27 27 26 24 21 19 17 17 16 15 14 14 14 13 13 12 13 14 15 15 15 15 15 16 16 16 17 16 16 16 16 17 17 17 18 19 19 20 20 21 21 21 20 20 20 20 21 21 22 22 21 19 18 17 16 15 14 12 11 10
3 6 7 6 7 5 11 16 17 20 19 16 14 12 13 16 15 13 15 10 9 19 28 35 40 42 41 41 39 36 36 36 35 34 31 29 28 25 24 24 22 20 19 17 16 15 14 14 14 14 14 14 12 12 13 14 15 15 15 15 15 16 15 16 16 16 16 16 16 16 17 18 19 20 20 21 22 21 21 20 20 20 20 20 20 19 19 17 16 15 14 13 12 11 10 9 8
4 5 9 9 11 8 14 18 16 19 19 16 13 12 15 17 14 12 10 10 18 25 30 36 41 41 41 40 38 37 36 36 36 34 31 30 28 25 24 23 21 20 18 17 16 15 14 14 14 14 14 14 13 12 12 13 14 14 15 15 15 15 15 15 15 15 15 16 16 16 16 18 19 19 20 20 20 20 19 19 18 18 18 18 18 17 17 15 14 14 14 13 12 11 10 10 9
7 3 9 11 14 14 17 18 15 18 18 16 16 14 13 12 12 11 9 16 24 28 32 36 39 41 40 38 37 37 36 36 35 33 32 30 27 25 23 21 20 19 18 16 15 16 15 14 14 14 14 14 14 13 13 13 14 14 15 15 15 14 15 15 15 15 15 16 16 16 16 17 19 18 18 18 18 18 17 17 17 16 16 16 16 16 15 14 13 14 14 13 13 12 10 9 9
8 4 9 12 15 17 18 18 16 17 17 18 19 13 10 11 12 7 8 21 29 31 35 36 38 40 38 37 36 36 36 34 34 33 32 29 27 26 23 20 19 18 18 17 15 16 16 15 15 14 14 14 14 14 14 14 14 14 15 15 14 14 14 14 15 15 15 15 16 16 16 16 17 17 16 16 16 16 16 16 15 15 15 15 15 15 15 15 15 14 14 13 12 11 8 8 8
12 7 9 13 17 19 19 18 15 15 17 19 17 9 9 14 13 6 5 21 31 34 37 36 37 37 36 36 36 36 35 33 33 33 32 29 26 26 25 21 19 18 18 17 16 17 17 16 15 14 14 13 14 14 13 14 14 14 14 14 13 13 14 14 14 14 13 14 15 16 15 13 14 14 15 15 15 15 15 14 13 14 15 15 15 14 14 14 14 13 12 11 10 9 7 6 7
13 9 11 16 19 18 17 17 15 13 14 16 13 7 10 13 9 2 3 16 30 38 37 35 37 34 33 35 35 35 34 33 32 32 32 29 26 27 26 23 20 18 18 18 16 17 17 16 16 15 15 14 14 14 13 13 13 13 13 13 12 12 12 12 12 12 12 13 14 15 14 12 12 13 13 13 14 13 13 12 13 15 15 16 16 15 15 14 13 12 10 9 8 8 7 7 5
10 13 11 14 17 13 7 10 15 14 9 13 15 9 7 9 6 4 4 10 24 35 36 34 34 33 32 34 34 33 32 32 31 31 32 32 30 28 25 24 22 19 18 20 18 18 18 16 17 17 16 15 15 15 14 13 13 13 13 13 12 11 11 11 11 11 11 12 12 13 13 12 12 12 12 12 13 12 12 12 13 15 15 16 16 15 15 14 13 11 10 9 8 7 7 8 6
19 19 9 10 12 9 3 4 12 11 7 16 19 10 5 7 5 6 9 16 20 25 32 33 32 31 32 34 34 33 31 31 31 31 32 33 31 28 26 24 22 20 19 18 18 18 18 17 17 17 17 16 16 16 16 15 13 12 13 13 11 10 10 10 10 10 10 11 11 11 11 12 12 12 12 12 12 12 13 12 13 14 14 15 15 14 14 13 12 10 10 9 8 8 6 7 7
21 15 9 8 5 3 7 6 9 7 11 18 12 4 4 3 6 9 13 25 25 20 23 29 32 30 31 33 33 33 32 32 31 30 32 31 29 28 28 25 22 21 20 18 17 18 18 18 17 17 17 17 17 17 16 16 13 12 12 12 10 9 10 10 9 9 9 9 10 10 11 11 12 13 14 13 12 12 13 12 12 13 13 14 14 12 12 12 11 9 9 8 8 8 6 5 6
13 8 7 7 2 3 8 9 10 6 12 17 4 2 7 3 7 10 12 25 29 24 19 21 28 30 30 32 31 31 32 33 32 29 30 30 25 25 27 26 23 21 21 19 17 18 19 19 18 18 17 17 18 17 17 16 13 13 12 11 9 8 8 8 9 9 9 9 9 10 11 11 12 13 13 13 12 12 11 11 12 13 13 14 13 11 12 13 12 10 9 9 9 9 8 7 6
7 6 4 4 4 6 7 10 14 9 12 14 1 3 5 1 7 12 13 22 27 25 21 17 22 30 31 32 31 30 31 32 32 30 30 28 24 23 26 25 24 23 21 20 17 17 19 19 19 18 18 17 18 16 16 15 13 13 11 9 8 7 7 6 7 9 9 8 8 9 10 10 12 12 12 12 12 11 10 10 12 13 13 13 12 12 12 13 12 11 11 11 11 10 9 8 6
4 5 5 6 6 6 4 8 14 12 11 9 3 4 3 1 8 11 13 21 23 21 22 19 19 29 32 31 31 30 32 31 31 32 30 28 25 24 24 24 26 25 21 21 19 18 20 21 19 19 19 18 17 16 16 15 13 12 11 9 8 7 6 5 6 7 7 7 8 9 10 10 11 11 11 11 11 10 9 10 11 12 11 11 12 11 12 13 12 12 12 12 11 9 9 8 6
3 2 5 7 9 9 7 7 11 11 10 7 4 4 4 5 11 13 14 23 23 19 24 21 16 27 32 30 30 31 32 31 32 34 30 29 27 24 23 23 26 25 22 22 20 19 20 21 20 19 19 18 17 17 17 15 13 12 11 9 8 7 6 5 4 5 6 6 7 8 9 9 9 10 11 11 10 9 9 9 9 10 10 10 11 12 13 13 12 12 12 11 9 8 7 6 6
4 4 4 5 8 11 10 7 10 13 9 6 6 5 6 9 12 15 15 21 23 19 23 19 15 24 33 29 29 32 31 30 33 33 31 30 28 26 25 23 25 25 24 22 20 20 19 20 21 20 20 19 18 18 17 14 13 14 13 11 9 7 5 4 4 5 6 6 7 8 8 8 9 9 9 10 8 8 8 9 9 9 8 9 10 12 12 12 11 12 11 10 8 8 7 5 4
1 1 4 6 5 5 7 5 9 14 8 5 8 7 7 11 11 14 16 20 23 20 21 19 16 21 31 29 29 32 30 29 33 33 32 32 30 29 27 24 25 25 25 24 22 21 19 19 21 21 20 19 19 19 17 14 15 16 15 13 12 9 7 5 5 6 6 7 7 7 8 9 9 8 7 8 8 8 8 9 9 9 8 9 9 10 10 10 11 12 10 9 8 9 8 6 4
3 4 0 7 6 4 6 6 9 13 7 3 6 7 7 10 9 10 17 20 19 19 19 19 18 20 29 29 28 32 30 30 32 31 32 33 31 31 28 27 27 25 27 26 24 24 21 18 21 22 21 20 21 21 19 17 17 18 16 14 13 11 9 8 7 6 7 7 7 7 7 8 9 9 7 7 7 8 8 8 9 9 9 9 8 8 8 8 11 12 11 10 9 9 7 6 5
5 5 2 5 7 5 8 9 11 10 5 2 5 7 7 8 8 8 14 17 16 19 18 17 19 21 27 28 29 32 30 31 33 30 30 32 34 32 29 30 29 27 28 27 25 26 22 18 21 23 22 22 23 22 20 20 19 18 15 13 12 11 10 9 7 7 7 7 7 6 6 7 8 10 8 7 7 7 7 7 8 8 9 9 7 7 8 9 11 12 11 11 9 8 7 6 7
5 5 1 3 6 6 6 8 12 7 2 3 6 7 5 5 7 8 8 8 10 15 13 11 14 19 26 28 31 33 28 31 35 31 29 33 36 33 31 32 30 27 28 27 27 26 23 20 21 23 23 23 24 24 22 20 20 17 15 13 12 11 11 9 6 6 7 8 8 7 7 7 8 9 8 6 6 6 7 7 7 7 8 9 7 7 9 9 10 10 11 11 8 6 6 6 5
5 4 2 4 9 10 6 8 11 5 2 5 8 6 3 2 4 6 6 4 7 9 11 9 8 11 21 28 33 34 29 32 36 32 30 34 37 34 33 33 29 27 28 28 29 26 23 22 22 24 23 22 24 24 21 21 20 17 15 14 12 11 11 9 7 7 7 8 8 8 7 7 8 8 7 6 6 6 7 7 7 7 8 9 7 7 8 9 9 10 11 10 7 6 6 5 4
6 5 4 7 11 10 9 13 11 6 4 5 9 6 2 0 2 3 5 5 6 6 11 14 11 11 13 21 30 33 30 33 36 32 32 36 38 35 34 33 29 28 28 29 29 26 24 23 23 23 22 22 23 22 21 23 21 18 17 15 13 12 11 11 10 10 9 8 8 8 8 8 9 8 7 7 6 6 6 7 7 7 8 8 8 8 9 9 11 11 11 10 7 7 7 6 4
6 5 8 11 10 5 8 15 11 5 3 6 6 4 2 2 4 5 6 6 6 6 9 14 16 14 12 14 23 27 28 35 35 32 35 38 37 36 34 32 30 29 29 29 29 26 24 24 23 22 21 22 23 21 22 24 22 20 20 19 17 15 13 14 12 11 11 9 8 8 8 8 9 9 8 7 7 6 6 6 6 7 7 8 9 9 10 10 11 11 11 10 8 7 7 5 4
4 7 11 13 13 10 11 15 11 4 4 10 8 3 1 2 4 6 8 7 8 8 7 11 15 16 16 16 19 22 25 34 36 33 37 39 37 37 34 32 31 30 29 28 28 26 24 24 23 22 21 22 24 22 23 24 22 21 21 20 18 15 14 14 12 11 9 7 7 8 8 8 8 9 9 8 7 7 6 7 7 7 8 9 9 9 10 11 11 11 11 10 8 8 7 6 5
5 7 12 16 16 17 18 15 8 3 4 7 7 2 4 2 5 6 9 9 9 9 8 10 14 20 22 20 18 18 23 32 36 35 38 40 38 37 34 33 31 29 28 28 27 26 25 24 23 21 21 23 24 23 24 25 22 22 22 19 17 15 14 14 13 11 9 7 8 8 6 7 7 8 8 8 8 7 6 7 8 8 9 10 10 10 11 11 11 12 12 11 9 9 8 7 7
7 5 11 16 17 19 19 12 5 4 6 6 7 3 4 2 2 5 7 8 10 13 12 13 17 23 25 24 22 18 19 29 36 36 39 40 38 36 34 32 31 28 27 27 27 26 25 24 23 22 22 24 25 25 25 24 23 23 22 20 19 17 15 14 13 12 9 8 9 8 6 5 6 7 8 7 7 7 6 6 7 8 9 10 10 11 11 11 11 11 12 11 10 10 10 9 8
8 5 9 11 13 15 15 9 3 4 5 6 10 6 4 2 2 4 7 8 12 13 11 14 22 27 29 28 26 21 17 24 33 36 39 41 38 36 34 31 31 28 26 26 26 26 26 24 23 23 22 24 26 26 25 24 24 24 23 23 21 19 17 15 14 13 11 9 9 9 8 6 6 6 7 7 7 7 6 6 7 8 9 9 9 10 11 11 9 9 10 10 10 10 11 11 10
6 4 6 6 8 9 7 3 1 3 1 5 13 10 6 2 3 6 6 6 11 13 10 13 22 29 33 34 32 28 21 21 30 35 38 39 38 36 35 33 31 29 27 27 26 26 27 25 24 23 23 23 25 27 26 25 26 26 25 25 24 22 19 18 17 16 13 12 11 11 10 9 7 6 6 7 7 7 7 7 8 8 9 9 9 10 10 9 8 7 8 9 9 10 12 12 10
4 3 4 5 4 4 4 0 1 2 2 7 12 11 5 3 4 9 10 5 9 13 13 15 20 27 33 35 35 34 29 25 27 32 36 38 39 37 36 34 32 31 29 28 26 26 28 27 25 23 24 24 25 26 26 25 26 26 25 26 25 24 21 20 19 18 17 16 14 13 12 11 9 7 7 8 8 8 7 8 8 9 10 9 9 10 9 8 9 9 8 8 8 10 12 12 10
3 4 4 5 3 3 4 4 4 3 4 7 12 10 3 3 4 9 13 8 8 13 15 17 20 23 26 29 31 33 32 29 26 28 34 38 39 39 38 36 35 33 31 29 27 26 27 27 26 24 24 25 26 26 26 25 24 25 25 25 25 24 22 20 19 18 19 17 15 15 14 13 11 9 8 9 9 9 8 9 9 9 9 9 9 10 10 9 8 9 8 8 8 9 10 10 9
4 5 4 5 5 5 5 5 4 4 4 3 11 10 3 3 3 6 12 9 11 17 17 19 22 24 27 29 30 31 31 30 25 24 33 39 40 40 39 37 36 34 32 31 29 26 27 27 26 25 24 25 27 27 26 25 23 23 23 23 24 23 22 21 18 19 20 18 17 17 15 13 12 10 9 9 9 9 9 9 9 8 9 9 9 9 9 9 8 8 8 8 9 9 9 9 9
3 4 5 5 5 5 5 5 5 5 3 5 7 5 3 2 3 3 8 11 14 19 17 18 20 24 27 28 30 29 26 27 25 23 29 36 38 40 40 38 36 35 32 32 31 28 27 28 27 26 24 23 25 27 27 26 24 23 22 22 23 23 21 20 18 18 19 19 18 18 17 15 13 11 9 8 9 8 9 10 9 8 9 9 9 8 8 8 8 8 8 8 9 10 9 9 9
3 2 6 3 5 5 3 5 5 5 5 3 2 0 1 2 3 6 6 11 13 16 16 16 17 19 22 24 27 27 24 24 23 24 26 26 29 34 37 38 36 35 34 34 34 31 29 29 28 26 25 22 23 25 26 25 24 24 24 23 23 23 21 21 19 17 18 19 19 18 17 15 13 11 9 9 9 8 8 10 9 8 8 8 8 8 8 9 9 8 9 9 9 9 9 9 10
2 1 3 5 5 6 3 3 2 5 6 1 1 2 2 1 1 7 5 8 9 11 13 14 16 17 19 20 23 23 23 20 19 25 24 16 19 26 31 37 37 36 36 35 34 33 30 31 30 28 26 24 23 23 24 25 24 24 24 24 24 23 22 22 20 19 18 18 18 18 17 16 14 12 11 9 9 8 8 10 9 8 8 8 8 8 8 9 9 10 9 9 9 9 9 9 10
3 1 4 4 2 5 3 2 2 5 5 1 2 2 1 0 0 3 2 5 8 9 10 12 14 15 14 14 16 16 15 12 12 22 18 11 15 24 28 36 40 37 37 36 34 32 31 31 31 30 29 27 24 22 23 25 24 24 24 23 23 23 23 22 20 19 18 17 17 16 17 17 15 13 12 10 9 10 9 10 10 9 9 9 8 8 8 8 9 10 10 9 9 10 9 9 10
4 2 2 0 2 1 0 2 3 3 4 2 2 1 1 0 2 3 2 5 6 7 9 9 9 10 10 9 10 11 11 10 11 14 16 12 18 26 28 35 39 36 35 34 34 33 32 32 31 31 30 28 25 22 22 25 25 24 23 22 22 22 22 22 20 19 18 17 16 15 15 16 16 14 13 11 10 10 10 10 10 10 10 10 10 9 9 9 9 9 9 9 9 10 10 10 10
1 3 3 1 3 3 2 2 4 4 4 3 1 1 1 2 2 2 5 6 5 5 7 9 12 15 15 13 11 9 9 11 11 11 19 23 23 24 26 31 35 35 33 32 34 33 32 33 31 30 31 28 26 24 22 23 24 23 21 20 21 21 21 21 20 20 20 18 16 15 14 14 15 14 14 13 11 10 11 10 10 11 11 11 11 11 10 10 10 9 10 10 9 10 11 10 10
1 3 3 1 1 0 2 1 1 5 5 4 4 1 2 3 1 4 8 8 4 3 7 10 14 20 20 19 17 14 12 12 10 10 17 22 21 20 21 24 30 34 32 30 33 33 33 33 31 30 31 30 27 25 23 23 23 21 20 20 20 20 20 19 19 20 20 20 19 17 15 14 14 14 14 15 14 12 11 11 10 12 12 11 11 12 11 11 11 10 10 10 10 11 11 11 11
4 2 3 3 2 2 2 1 2 3 4 5 5 4 1 3 1 5 9 8 7 8 12 14 16 20 21 21 21 20 20 18 13 9 11 14 16 17 18 20 26 32 32 30 32 33 32 32 32 32 33 31 28 26 25 25 24 21 19 20 21 22 21 20 19 19 19 19 19 18 15 14 15 15 15 16 17 15 14 13 13 13 13 13 12 11 11 12 12 12 11 11 11 11 11 11 12
Wind_Direction
143 140 141 131 116 106 70 49 65 339 300 322 276 122 117 203 323 149 158 138 78 154 175 198 180 194 202 135 123 97 76 121 150 136 147 143 152 157 155 155 155 153 150 148 147 146 145 142 139 135 137 135 128 128 126 119 115 115 115 116 117 116 117 117 115 115 115 112 110 112 112 115 120 122 124 127 128 128 128 127 130 130 130 133 135 134 130 125 123 120 119 119 119 120 121 122 122
145 142 142 131 98 66 54 41 51 307 297 315 271 105 107 124 347 172 215 167 24 178 174 171 154 156 131 121 117 100 61 43 131 122 123 141 151 154 154 154 153 152 151 149 148 146 146 143 140 140 141 134 130 129 122 117 114 113 115 116 116 117 119 117 115 116 116 115 115 115 113 116 120 121 124 128 129 129 130 130 130 130 129 132 135 132 128 125 123 122 122 122 121 120 119 120 121
149 146 139 122 81 61 73 51 4 307 320 294 271 36 94 120 341 245 257 76 56 106 142 136 123 123 117 109 102 101 72 91 123 125 127 147 153 153 154 152 152 153 151 150 148 147 147 145 142 143 140 133 131 125 119 117 115 116 118 117 119 122 120 116 116 116 116 115 114 113 114 116 117 120 123 127 130 130 130 129 128 130 131 134 134 128 126 125 123 123 123 121 120 120 119 119 120
156 156 146 106 68 50 99 96 213 289 321 304 309 77 102 138 153 230 253 94 105 111 124 129 111 110 113 104 100 93 104 118 126 131 136 153 153 151 152 152 154 153 151 150 148 148 148 145 143 142 135 132 130 123 120 118 118 120 119 117 120 119 117 115 115 115 115 113 111 111 113 115 117 118 121 126 129 127 125 126 127 131 131 131 129 124 124 124 124 125 123 121 120 120 119 119 120
163 165 133 90 39 359 106 264 182 227 51 324 321 89 137 137 151 237 248 134 114 115 150 141 105 94 98 94 108 106 125 128 131 137 142 152 151 149 150 152 153 151 151 150 150 149 147 145 143 138 132 132 129 124 123 119 120 120 118 118 117 115 115 114 113 114 114 112 111 111 112 114 116 117 119 121 123 122 122 124 125 126 125 125 125 124 125 125 124 124 124 122 120 119 118 120 120
171 160 132 135 268 300 327 266 272 246 84 168 282 131 153 111 147 201 158 151 97 124 150 118 110 99 81 75 93 115 134 134 136 141 143 148 147 147 149 151 151 151 151 151 152 149 147 145 139 133 131 133 129 126 123 120 120 119 119 119 119 119 118 116 116 116 115 113 111 111 113 116 117 119 118 118 120 120 123 125 124 123 123 124 123 123 125 125 123 123 124 122 119 118 118 119 120
170 161 163 206 237 263 224 241 277 242 323 146 154 141 146 103 121 136 207 141 87 110 123 112 113 99 80 97 92 105 136 138 138 143 144 144 144 146 150 152 152 151 151 152 151 148 147 141 133 132 133 132 128 126 123 123 123 124 125 124 124 121 119 118 118 119 117 114 112 112 113 116 117 118 117 118 118 118 122 123 122 122 123 124 122 122 124 123 122 122 123 121 119 119 118 118 119
158 167 207 176 212 232 192 252 235 187 128 115 133 133 138 133 138 139 289 159 99 105 112 118 113 95 85 109 95 111 136 139 140 142 142 141 144 147 150 152 151 150 149 150 149 149 145 135 133 135 133 132 131 129 127 128 129 131 132 130 126 120 121 121 121 120 116 113 112 112 111 112 115 117 117 117 116 118 121 120 120 121 123 122 121 122 121 120 120 122 122 121 120 120 119 118 118
159 165 253 173 255 242 260 272 216 187 148 125 114 125 131 141 148 158 272 38 112 107 106 123 113 102 107 101 101 127 137 143 141 139 140 142 146 147 150 150 150 148 148 150 149 148 141 135 136 135 135 136 135 134 132 131 132 133 132 132 127 122 123 122 122 119 114 111 110 111 109 109 112 116 116 114 116 118 119 120 119 120 123 120 120 123 121 120 122 123 123 122 122 121 120 119 118
157 187 227 153 252 275 275 269 201 156 126 95 87 120 127 145 151 161 211 111 113 102 104 118 107 108 114 100 105 134 140 143 140 138 142 145 148 149 150 149 150 148 148 149 147 145 139 137 138 136 138 140 139 138 136 134 133 131 129 130 127 124 122 120 119 116 114 113 110 108 107 108 110 113 113 115 117 118 119 120 120 120 122 120 122 125 123 123 125 125 125 125 125 123 121 120 119
157 204 182 84 283 291 284 295 232 122 95 87 89 98 114 138 127 71 79 107 111 105 111 112 102 109 108 96 111 137 144 143 142 141 144 148 151 152 150 150 151 149 146 146 145 144 140 139 139 139 142 143 142 139 135 133 132 128 125 127 127 125 122 121 119 117 117 113 109 106 106 108 109 110 111 115 116 117 119 119 120 122 123 122 124 125 124 125 127 128 128 127 126 125 123 121 119
187 194 106 19 268 265 275 295 200 115 100 111 135 49 121 124 93 88 98 109 115 117 121 119 122 117 104 101 125 140 144 144 144 143 146 151 154 152 150 152 151 149 146 145 146 145 142 140 141 143 145 143 140 135 131 130 129 126 125 126 125 125 123 120 119 119 116 111 109 107 107 108 107 109 110 113 114 117 120 119 120 122 122 123 123 123 125 126 128 132 132 129 128 127 125 121 119
204 155 125 320 227 242 283 282 131 121 123 120 156 148 130 111 91 121 134 118 119 124 128 131 133 119 105 124 134 143 147 148 148 145 148 153 157 153 151 151 150 149 146 146 148 148 145 141 143 145 145 142 138 133 131 130 127 125 126 125 124 125 122 120 120 120 116 112 110 108 108 107 106 109 111 113 115 117 118 119 120 121 123 123 123 124 126 127 129 133 134 132 130 129 125 122 120
200 167 144 300 256 268 293 235 128 129 127 117 146 140 124 91 96 124 128 109 99 116 124 135 131 114 118 133 138 150 152 153 151 147 149 156 157 152 153 152 151 149 146 149 150 151 147 143 145 145 145 143 138 135 133 130 125 126 126 126 126 125 122 122 122 120 116 112 111 109 108 107 108 109 111 113 114 116 117 119 121 123 124 124 125 126 127 127 129 133 133 131 131 130 126 123 120
203 178 138 283 286 288 340 85 229 135 119 145 157 133 114 109 124 127 116 98 104 123 126 136 128 112 142 148 151 158 155 154 152 149 152 157 155 152 155 152 150 148 147 152 152 153 147 144 146 145 147 143 138 136 135 130 126 129 127 127 127 126 124 124 124 121 116 112 110 110 110 111 111 110 111 112 113 115 118 121 122 124 125 125 125 125 126 127 127 129 129 128 127 126 125 121 115
198 179 106 314 256 239 168 123 201 150 125 161 151 130 116 114 137 135 120 112 120 132 135 141 136 136 153 150 153 157 154 153 150 150 153 154 153 153 155 152 150 149 151 156 155 153 146 146 148 146 147 143 141 137 134 131 129 130 127 127 128 127 126 126 126 122 118 114 114 114 115 115 114 113 114 114 115 118 120 122 123 125 125 124 122 121 123 124 125 124 125 125 123 122 122 118 112
178 157 83 280 245 241 170 168 192 159 134 159 155 136 122 113 138 132 126 123 126 140 142 143 141 139 144 145 148 150 150 152 151 152 152 151 153 154 155 153 152 153 156 159 156 150 146 149 149 148 147 144 144 139 135 132 132 133 131 129 129 128 128 130 129 125 123 120 119 118 118 118 117 117 118 119 119 120 121 123 125 125 122 120 119 119 121 122 123 121 120 120 121 123 123 118 111
166 133 200 268 242 204 181 184 157 134 132 159 171 148 129 131 145 130 118 115 126 135 135 130 130 135 140 142 144 146 150 153 154 153 150 151 154 155 156 155 156 158 160 160 155 150 149 152 151 149 145 144 144 140 136 135 138 138 135 133 132 131 131 131 130 128 126 123 120 118 118 117 117 118 120 121 122 122 124 125 125 123 120 119 118 118 119 120 119 118 116 117 120 123 122 116 108
182 145 162 245 229 181 166 160 145 143 144 157 167 147 135 135 140 129 116 114 131 130 131 129 126 133 140 143 146 150 153 156 156 152 151 154 156 157 158 158 160 163 162 159 155 153 153 154 153 149 143 144 145 141 137 138 141 139 137 136 133 133 133 132 130 130 127 123 121 120 119 118 118 120 121 123 123 123 124 125 123 121 121 120 119 117 117 118 116 115 113 113 115 116 114 109 103
201 161 178 242 214 111 133 144 149 150 147 152 156 146 138 134 138 133 134 150 142 138 142 136 131 138 145 149 152 153 155 158 156 154 155 157 159 161 160 160 165 166 163 158 155 157 157 156 152 148 144 143 144 140 137 137 138 137 138 137 134 134 133 132 131 131 127 125 124 124 123 120 120 122 122 124 124 124 124 124 124 123 123 121 119 117 117 116 115 114 112 111 111 108 105 100 96
191 172 203 214 180 116 125 140 147 146 144 145 144 143 133 132 142 145 147 149 153 154 149 144 143 146 150 153 155 157 159 159 157 157 158 159 161 161 161 164 168 165 161 158 158 160 158 158 154 149 146 144 144 139 136 136 136 135 135 135 134 134 133 132 131 132 130 128 128 127 126 122 121 123 123 124 123 123 123 123 124 123 123 121 120 119 119 116 114 114 113 112 112 111 106 100 98
174 216 229 186 159 128 134 143 144 143 141 137 138 137 128 134 141 152 163 163 165 160 150 148 150 152 154 155 156 159 161 161 160 159 160 162 161 159 161 167 167 162 161 160 160 161 160 160 155 151 148 146 145 140 136 135 135 134 134 133 133 133 134 134 134 134 133 132 131 129 127 124 124 125 126 125 123 123 123 123 124 124 124 123 123 123 123 120 117 113 111 110 112 119 117 110 111
188 245 234 182 149 130 134 143 146 145 141 138 143 135 128 133 135 151 175 165 158 155 149 150 153 155 156 155 156 159 162 162 161 160 162 164 162 161 166 169 167 161 161 163 162 161 162 162 158 154 150 148 147 144 140 137 136 134 132 132 131 133 135 136 136 135 135 134 131 127 126 126 127 128 128 125 124 123 124 124 124 126 126 126 126 126 127 125 120 115 110 107 110 120 117 111 115
199 237 214 177 143 137 139 145 149 147 143 140 143 135 130 134 134 148 151 145 154 153 148 150 152 154 155 156 157 160 162 163 164 163 164 166 165 167 169 170 168 163 164 168 166 164 163 161 161 157 153 152 150 147 144 141 138 134 132 131 132 133 135 136 135 135 136 134 130 127 127 129 129 129 129 127 125 125 125 125 125 126 126 127 127 126 127 124 123 122 118 113 112 114 108 104 111
217 232 191 169 139 139 140 145 151 145 143 142 141 131 135 137 121 114 127 141 151 152 148 148 150 152 155 157 158 161 163 165 166 165 166 167 168 172 173 173 173 171 173 173 169 167 163 160 162 161 158 155 152 150 147 144 140 135 134 133 133 132 134 134 136 138 139 138 134 132 133 134 134 134 135 134 132 130 130 130 129 129 129 129 129 127 127 124 124 126 127 124 119 116 107 97 100
221 211 168 154 137 140 141 146 151 144 143 144 138 120 133 131 105 70 135 147 148 149 148 148 151 153 155 159 161 164 166 167 169 168 167 166 170 178 177 177 178 174 177 179 174 168 165 161 161 162 158 154 154 150 147 147 144 138 136 138 138 134 135 135 137 141 144 146 140 137 140 140 139 140 142 141 138 135 134 134 131 131 131 131 130 130 132 130 127 124 123 121 122 123 125 117 101
210 179 149 143 134 136 141 145 145 140 145 147 134 111 128 121 101 80 172 152 147 148 151 151 153 155 157 161 165 167 168 168 168 167 167 167 171 175 175 178 179 174 177 179 175 170 166 161 159 159 156 154 155 150 147 148 145 140 138 141 144 141 142 141 142 146 149 148 141 140 145 147 146 144 145 146 143 141 139 136 133 131 132 134 133 133 134 133 128 122 116 112 117 124 135 151 133
160 138 128 118 105 97 107 142 146 140 153 153 125 100 104 84 60 54 84 147 151 149 153 156 157 158 159 162 165 167 168 168 167 169 173 173 171 172 175 179 179 175 177 176 173 171 166 161 160 158 156 155 155 151 147 147 144 142 141 141 142 144 148 150 150 154 154 152 147 142 145 151 154 149 149 151 146 144 142 137 134 132 134 139 139 137 134 131 126 120 119 118 126 133 131 143 147
131 128 105 80 76 88 132 185 164 148 151 150 124 99 78 58 85 111 123 154 157 152 155 158 160 162 162 163 165 167 170 171 172 175 176 176 175 177 178 181 183 177 173 172 169 169 164 159 160 158 158 157 156 153 148 147 146 145 144 140 139 142 150 153 155 161 161 160 157 147 144 149 152 151 152 153 150 145 142 138 136 136 138 143 144 139 132 131 129 123 122 125 133 138 130 127 132
135 130 112 98 51 141 174 195 188 151 145 151 125 110 140 94 155 141 147 163 163 161 162 163 164 165 164 164 168 170 172 173 174 176 177 178 179 180 180 183 186 177 169 169 168 168 164 159 159 159 160 160 158 157 153 152 151 152 148 140 136 143 153 158 163 168 165 163 162 152 146 146 146 148 150 152 152 148 146 143 141 142 142 145 145 138 135 137 136 131 126 126 128 131 136 140 138
131 114 111 135 110 188 194 193 177 136 163 169 102 103 167 170 159 131 144 166 166 165 170 174 167 165 167 167 171 172 173 175 175 178 179 178 180 182 182 183 186 181 170 167 167 166 166 162 161 161 159 161 162 162 161 157 154 157 152 141 140 147 154 157 162 164 157 153 154 149 147 149 151 152 152 154 154 153 153 149 144 146 143 142 143 139 140 141 137 136 134 129 119 118 133 151 153
133 123 119 170 150 164 215 203 173 148 180 192 107 107 154 174 154 134 140 163 170 166 171 192 176 166 169 171 175 175 174 176 176 179 180 181 183 180 180 180 183 183 174 170 170 168 169 166 163 163 160 162 165 166 166 159 156 160 153 145 150 155 153 150 155 158 154 146 144 151 155 157 160 162 162 159 157 157 156 150 146 147 144 141 142 142 144 145 143 144 140 131 122 118 130 145 149
161 144 146 182 159 150 197 203 187 167 167 196 214 138 125 166 167 141 134 156 168 165 169 195 189 169 170 173 176 176 173 174 175 178 181 182 183 179 178 176 177 182 181 177 176 172 171 168 167 168 164 164 165 165 166 159 158 164 159 155 164 169 156 140 152 159 156 150 147 158 165 166 169 172 171 163 157 156 153 149 149 150 152 149 146 151 154 152 151 148 139 131 132 133 136 142 145
217 161 148 178 164 153 168 184 191 174 157 175 179 139 128 148 153 137 139 159 162 162 173 194 204 174 170 175 175 174 173 173 175 178 181 182 182 180 178 175 176 181 183 182 181 173 170 172 171 171 170 168 165 163 164 159 161 172 173 170 174 173 148 128 150 166 163 159 157 165 173 177 179 178 173 163 156 156 157 157 159 162 163 159 158 164 166 163 159 151 142 138 144 147 143 146 151
188 169 142 174 167 165 174 169 173 171 159 153 144 135 137 141 139 132 144 161 154 160 179 198 218 180 170 174 171 172 175 175 178 181 183 182 181 180 178 175 175 179 184 186 183 176 174 176 175 175 174 172 169 164 161 161 168 179 181 177 180 179 158 147 166 174 175 172 168 173 182 187 187 183 170 160 160 161 163 168 174 179 176 171 173 174 172 172 169 156 149 150 150 149 143 140 144
143 93 110 148 163 167 166 152 163 160 145 150 154 146 147 150 144 132 143 156 151 159 183 203 222 186 170 172 171 175 180 178 179 180 182 181 181 181 178 176 174 178 186 187 184 182 182 179 177 178 175 173 171 164 163 169 174 177 178 180 186 187 181 184 180 174 182 179 170 173 182 189 191 187 173 164 172 173 170 175 181 188 190 186 181 177 176 176 172 162 156 157 152 149 144 134 123
325 325 116 155 156 154 154 151 165 156 132 160 158 136 146 153 146 134 141 150 153 162 179 201 215 190 174 174 175 180 183 178 176 178 181 182 182 181 178 177 175 174 181 186 187 187 186 184 181 179 175 173 172 167 171 178 176 174 177 183 187 187 187 188 181 171 183 185 173 174 185 192 190 188 187 182 183 181 176 179 186 188 191 191 185 183 182 176 171 165 160 157 150 149 145 141 147
274 276 279 166 166 162 152 152 164 159 126 133 140 128 142 147 139 137 144 152 165 172 178 196 200 186 179 179 177 180 181 176 175 177 181 182 182 180 178 178 176 174 179 186 190 187 189 193 188 182 177 176 174 173 178 183 180 175 178 185 183 181 184 185 180 165 172 182 176 180 193 195 190 190 195 196 188 182 182 186 189 189 192 193 190 189 185 175 171 170 165 159 153 149 144 145 157
246 253 263 153 148 112 113 150 160 154 92 141 141 128 128 131 131 136 149 154 160 173 186 196 194 185 180 179 175 174 176 174 175 178 178 180 181 179 178 178 178 179 182 186 188 188 191 197 194 187 183 180 179 181 183 184 184 177 178 185 179 176 178 175 177 168 166 175 175 181 190 189 190 191 194 199 194 187 192 195 192 191 195 194 189 187 182 174 173 176 173 168 161 152 147 145 149
241 228 133 138 153 138 137 171 160 122 53 147 133 109 93 81 98 119 140 131 124 168 197 200 229 213 180 175 174 174 174 171 175 178 175 176 178 178 179 179 179 182 183 186 187 190 196 200 197 191 188 185 185 186 184 183 184 177 175 182 181 177 173 170 181 178 167 171 175 178 181 182 187 192 194 197 196 194 194 193 193 195 195 192 190 182 176 173 172 174 176 174 168 159 156 157 144
247 219 158 166 172 163 155 161 151 91 68 137 116 82 11 152 139 142 150 146 132 167 189 192 232 244 190 174 175 177 177 173 175 177 173 175 177 178 180 180 181 184 185 188 191 196 201 201 197 193 191 187 187 188 183 182 183 177 174 177 182 180 175 182 190 181 170 172 175 177 179 181 183 188 194 191 191 199 197 189 190 196 196 191 188 181 173 174 174 174 176 171 166 159 160 171 165
252 220 182 170 154 128 142 151 147 100 120 184 146 95 311 242 187 185 166 158 160 164 181 196 218 231 215 190 177 179 180 176 177 177 174 176 177 178 181 182 184 186 189 194 197 202 203 200 198 196 192 188 188 186 181 182 182 179 178 176 179 182 182 190 193 182 175 173 173 178 183 184 181 183 189 187 188 196 195 195 195 192 193 188 184 182 176 178 181 182 181 173 172 170 164 182 186
246 220 182 158 131 132 163 159 153 139 165 198 198 133 109 244 231 200 174 168 174 169 176 199 216 222 218 205 186 183 183 178 178 178 176 177 178 180 182 184 186 188 191 196 200 202 202 200 200 200 195 189 188 186 182 183 182 180 182 182 182 187 190 193 194 187 179 173 173 182 189 188 184 181 185 185 184 192 191 197 200 189 188 188 185 185 181 183 188 188 186 181 184 191 187 200 194
242 222 168 154 145 157 176 171 160 144 125 174 207 140 102 223 232 189 174 174 178 184 183 190 209 215 212 211 206 195 188 181 179 178 177 178 180 183 184 186 189 190 192 196 199 200 200 201 203 204 198 190 188 188 185 185 184 180 182 189 192 196 201 198 194 189 185 183 179 179 186 192 190 184 185 183 180 190 197 196 198 191 191 191 186 187 187 191 194 190 190 187 190 202 202 206 202
239 209 155 161 161 165 176 175 160 125 114 160 210 149 96 246 230 143 165 182 191 196 191 185 197 205 205 211 222 222 202 186 182 181 180 181 183 186 188 189 191 193 195 198 201 201 201 204 206 206 200 192 190 191 189 187 185 182 184 193 197 199 205 203 196 191 187 190 186 181 189 202 202 191 182 182 180 188 198 196 195 196 199 197 190 192 195 199 198 192 195 195 197 209 207 208 212
232 172 141 161 166 170 173 172 154 112 114 180 205 176 119 230 228 146 171 196 203 199 190 189 191 195 200 206 220 235 227 197 186 184 184 184 187 189 192 192 192 196 199 201 203 203 202 205 208 208 201 193 191 193 194 190 187 187 189 195 198 198 201 200 200 196 192 197 197 194 203 215 224 207 184 184 189 190 195 197 196 198 203 202 198 200 203 207 204 196 203 209 209 211 208 212 217
232 148 127 127 154 168 156 148 112 87 67 212 203 188 143 158 219 190 196 205 194 187 186 193 191 192 197 202 209 218 223 210 193 186 185 187 189 191 193 194 194 196 199 201 204 204 203 206 209 208 203 196 194 195 197 195 191 192 195 198 200 201 201 202 202 199 196 202 209 209 211 218 229 222 198 199 201 197 200 202 201 200 202 201 198 203 208 211 210 203 208 216 216 208 204 211 217
209 146 127 99 126 134 99 321 245 146 240 235 208 192 152 156 219 209 213 210 176 181 187 190 191 194 196 197 200 203 209 212 198 190 188 187 188 190 191 194 195 195 197 200 205 206 205 208 209 207 206 203 199 198 200 200 197 197 200 202 203 203 205 206 204 201 196 199 209 215 213 218 228 226 217 215 210 208 207 203 204 204 207 204 197 207 216 214 214 212 206 210 213 207 205 211 218
157 131 112 98 132 145 147 207 214 184 236 229 193 181 177 236 239 206 201 197 178 186 195 192 188 191 195 196 196 197 204 208 198 191 191 188 187 189 190 193 195 195 197 200 204 207 207 209 209 208 209 206 203 202 202 204 203 202 204 206 206 205 206 207 207 203 200 201 208 214 215 220 225 226 223 217 208 210 211 205 206 206 210 212 205 211 219 218 220 219 210 207 208 210 213 214 216
156 152 138 129 145 161 181 193 186 199 230 171 153 159 208 271 286 204 184 179 179 185 195 195 189 189 194 196 194 196 202 202 195 191 190 190 190 189 189 192 195 197 199 202 205 207 208 209 209 209 211 209 205 204 205 207 208 207 207 209 210 209 207 206 205 202 203 206 211 217 222 225 226 226 225 218 209 209 212 211 210 208 210 215 213 216 221 223 223 218 216 214 214 217 215 212 212
198 176 139 146 159 158 183 186 176 188 169 96 120 155 210 203 296 268 161 156 171 180 190 194 192 195 194 193 193 195 198 197 195 192 187 189 191 190 190 192 195 199 200 203 205 207 209 209 209 211 212 211 208 207 208 209 209 208 207 208 211 213 211 206 204 204 208 211 215 220 225 228 228 227 221 212 207 208 213 213 210 210 214 214 213 217 225 231 227 217 220 223 224 225 216 211 211
261 167 113 165 187 147 164 186 166 139 118 73 68 22 324 185 282 343 94 136 161 169 176 181 186 192 189 190 194 195 198 197 194 187 181 183 185 186 188 190 194 199 202 204 205 207 210 210 211 212 214 214 213 211 210 211 210 208 207 207 209 213 213 210 208 208 213 217 220 222 226 228 228 227 220 208 206 209 210 212 207 206 218 218 213 219 226 230 231 226 225 225 225 227 220 213 213
273 89 149 217 179 129 140 187 136 91 102 52 28 96 349 242 304 356 54 125 144 152 159 165 173 180 182 189 195 200 204 204 199 194 185 166 169 179 184 189 193 199 203 205 206 209 212 213 212 213 215 217 218 218 215 213 211 208 208 208 209 210 211 211 213 214 217 220 221 223 227 229 226 225 225 218 217 218 213 214 210 204 215 220 216 221 224 227 231 229 228 228 226 227 223 219 220
120 171 239 249 116 105 114 139 77 61 97 70 19 126 181 192 96 331 9 111 121 127 132 140 153 166 176 183 188 192 196 191 190 196 183 131 156 180 185 192 196 199 202 204 207 212 214 215 215 215 216 218 220 223 220 215 212 209 209 209 209 211 211 212 215 218 220 219 219 221 225 229 226 223 225 224 224 226 222 219 216 210 213 219 221 222 222 225 231 230 229 231 230 228 223 222 224
134 171 258 208 124 160 336 151 146 93 108 116 15 29 170 207 191 187 125 82 87 96 100 104 108 122 135 139 147 156 161 143 132 170 186 181 190 195 193 196 199 200 202 204 209 215 217 216 216 217 218 220 222 225 223 219 215 210 209 209 210 212 213 215 216 217 220 222 222 223 223 226 226 221 220 220 221 229 230 225 223 221 215 215 221 223 224 228 230 232 235 234 232 230 226 225 225
69 37 343 63 134 173 178 177 152 123 131 143 80 2 252 254 239 151 94 63 39 44 72 76 71 80 89 94 106 124 145 146 131 159 195 200 200 201 201 201 201 202 205 207 210 214 216 216 217 217 218 220 221 225 225 221 217 215 214 213 212 214 216 218 219 219 220 222 226 230 229 228 225 221 220 222 224 230 234 233 232 230 222 217 218 218 222 228 229 232 236 233 230 231 232 231 229
63 33 332 314 30 121 152 203 129 121 140 149 132 165 272 284 235 123 111 105 109 90 81 80 79 81 80 80 87 94 104 125 141 173 194 194 190 193 197 199 202 204 206 206 207 209 211 214 215 215 216 218 220 224 225 222 217 216 219 220 219 218 219 221 223 223 223 222 225 230 234 234 227 223 224 227 230 231 234 242 244 239 233 228 223 218 218 224 228 230 233 234 233 234 235 232 230
137 142 229 192 150 124 112 290 313 86 122 149 149 163 253 325 341 132 130 125 128 120 103 94 88 85 82 80 83 87 92 100 111 138 170 181 182 183 187 192 199 202 202 202 205 206 207 210 211 209 210 213 216 215 212 211 211 212 217 221 219 216 216 219 222 224 224 222 223 225 231 236 231 225 225 228 233 234 236 244 248 245 241 238 235 226 221 224 226 227 230 235 237 237 238 236 232